[[{"header":{"parameterUnit":"m.s-1","parameterCategory":1,"la1":30.2991,"la2":30.254,"lo1":-89.0895,"lo2":-89.0444,"dy":0.0017,"dx":0.0017,"nx":28,"ny":28,"refTime":"2023-08-06T09:00:00:Z","depth":0,"parameterNumber":2,"parameterNumberName":"U-component_of_WINDS"},"data":[0,0,0,0,0,0,0,0,0,0,0,0,0,0,0,0,0,0,0,0,0,0,0,0,0,0,0,0,0,0,0,0,0,0,0,0,0,0,0,0,0,0,0,0,0,0,0,0,0,0,0,0,0,0,0,0,0,0,2.3422,2.3424,0,2.3556,2.3558,2.3559,2.3598,2.3597,2.3597,2.3596,2.3738,2.3742,2.3746,0,0,0,0,0,0,0,0,0,0,0,0,0,2.3206,2.321,2.3422,2.3424,2.3426,2.3556,2.3558,2.356,2.3598,2.3597,2.3596,2.3596,2.3736,2.3741,2.3747,0,0,0,0,0,0,0,0,0,0,0,0,0,2.3316,2.3211,2.3422,2.346,2.3465,2.3555,2.3558,2.356,2.3598,2.3597,2.3596,2.3595,2.3734,2.3741,2.3747,2.381,0,0,2.3768,2.3771,0,0,0,0,0,0,0,0,2.331,2.3324,2.3453,2.3458,2.3464,2.3559,2.3534,2.3644,2.3599,2.3548,2.3596,2.3595,2.3679,2.3691,2.3718,2.3817,2.3823,2.3768,2.3772,2.3775,2.3777,0,0,0,0,0,0,0,2.3302,2.3319,2.3475,2.3455,2.3461,2.3473,2.3487,2.3555,2.3618,2.3552,2.3555,2.357,2.3682,2.3712,2.3722,2.3825,2.3768,2.3774,2.3778,2.3781,2.3985,2.3986,0,0,0,0,0,0,2.3287,2.3312,2.3471,2.3479,2.3382,2.3478,2.3494,2.353,2.3618,2.363,2.3571,2.3572,2.3701,2.3714,2.3727,2.3807,2.3775,2.3782,2.3785,2.3983,2.3985,2.3987,0,0,0,0,0,0,2.3282,2.3301,2.3466,2.3397,2.3418,2.3483,2.3523,2.3533,2.3562,2.3632,2.3644,2.3589,2.37,2.3718,2.3789,2.3813,2.3785,2.3791,2.3982,2.3984,2.3986,2.3967,0,0,0,0,0,0,2.3276,2.3299,2.3322,2.3397,2.3422,2.3524,2.3524,2.3536,2.3573,2.3575,2.3652,2.3664,2.3701,2.3779,2.3796,2.3821,2.3796,2.398,2.3983,2.3985,2.3966,2.3969,2.3971,0,0,0,0,0,2.3268,2.3312,2.3323,2.3342,2.3452,2.3525,2.354,2.358,2.3575,2.36,2.3645,2.3661,2.3808,2.3786,2.3806,2.3833,2.3979,2.3982,2.3985,2.3965,2.3968,2.3971,0,0,0,0,0,0,2.3239,2.3322,2.3335,2.3404,2.3457,2.3532,2.3564,2.3582,2.3638,2.3638,2.3687,2.3705,2.3773,2.3811,2.3786,2.39,2.3894,2.3901,2.3872,2.3876,2.3878,2.3867,2.3801,0,0,0,0,0,2.3241,2.3292,2.3363,2.3417,2.3443,2.3499,2.3532,2.3559,2.3616,2.3639,2.3689,2.3746,2.3805,2.3843,2.3901,2.3973,2.3991,2.4001,2.4003,2.4005,2.401,2.4053,2.4058,2.3997,2.3997,2.3997,0,0,2.3245,2.3297,2.3326,2.3413,2.3457,2.351,2.3517,2.3573,2.3614,2.3648,2.3719,2.3758,2.3825,2.3897,2.3932,2.393,2.4032,2.4009,2.401,2.4014,2.4056,2.4062,2.4067,2.3999,2.3999,2.3999,0,0,2.3279,2.3323,2.3373,2.3418,2.3484,2.3521,2.3534,2.3606,2.3633,2.3704,2.3731,2.3782,2.3882,2.3928,2.3965,2.402,2.4038,2.4038,2.4049,2.4089,2.4094,2.4099,2.4119,2.4125,2.4043,2.4043,2.4043,0,2.3275,2.3355,2.3397,2.3452,2.349,2.3523,2.3576,2.3617,2.37,2.3726,2.3724,2.3851,2.3898,2.3982,2.3996,2.4024,2.4041,2.4028,2.409,2.4095,2.41,2.4119,2.4127,2.4043,2.4043,2.4043,2.4043,0,2.3349,2.3404,2.3437,2.3515,2.3557,2.3611,2.3662,2.3701,2.3724,2.3762,2.3836,2.3894,2.3965,2.3987,2.4011,2.4076,2.4073,2.408,2.4075,2.4104,2.4124,2.4131,2.4042,2.4042,2.4042,2.4042,0,0,2.3366,2.3468,2.3479,2.3515,2.3592,2.3637,2.3694,2.3761,2.3794,2.3851,2.39,2.3985,2.3992,2.4033,2.4064,2.4099,2.414,2.4102,2.4104,2.4107,2.4215,2.4209,2.4217,2.4153,2.4154,2.4156,2.421,0,2.341,2.3509,2.355,2.3631,2.3684,2.3718,2.3767,2.3821,2.3859,2.3911,2.3954,2.4013,2.4017,2.4043,2.408,2.4127,2.4162,2.4124,2.42,2.4202,2.4181,2.4227,2.422,2.4268,2.4217,2.4219,2.422,0,2.3473,2.353,2.3616,2.3688,2.3712,2.3755,2.3822,2.387,2.3933,2.3959,2.4006,2.4035,2.4097,2.4089,2.4177,2.415,2.4184,2.4212,2.4215,2.4223,2.4212,2.4236,2.4285,2.4292,2.4232,2.4231,2.423,0,2.3478,2.3575,2.364,2.367,2.3756,2.3786,2.3823,2.3885,2.3924,2.3983,2.4009,2.4075,2.4111,2.4163,2.4209,2.4199,2.4293,2.4289,2.4317,2.4316,2.4334,2.4332,2.4389,2.4357,2.4357,2.4357,2.4357,0,2.3522,2.3573,2.3643,2.3683,2.3742,2.379,2.3848,2.3888,2.3943,2.3993,2.4027,2.4073,2.4132,2.4186,2.4223,2.4291,2.4307,2.4331,2.434,2.4327,2.4324,2.4349,2.4347,2.4359,2.4359,2.4358,2.4358,0,2.3535,2.3584,2.3657,2.3732,2.3753,2.3793,2.3859,2.39,2.394,2.4003,2.402,2.4084,2.415,2.4202,2.4288,2.4313,2.4384,2.4395,2.4362,2.4367,2.4392,2.4389,2.4466,2.4479,2.4439,2.444,2.444,0,2.356,2.36,2.368,2.3715,2.3752,2.3808,2.3848,2.3898,2.3938,2.4014,2.4046,2.4114,2.4171,2.4275,2.433,2.4397,2.4409,2.4432,2.4419,2.4406,2.4409,2.4406,2.4411,2.4433,2.4433,2.4433,2.4433,0,2.3598,2.3621,2.3676,2.374,2.3787,2.3841,2.3895,2.3922,2.3982,2.4026,2.4093,2.4138,2.4226,2.4293,2.4366,2.4407,2.4431,2.4437,2.4447,2.4434,2.4413,2.4425,2.4366,2.4435,2.4434,2.4434,2.4434,2.4434,2.3618,2.3656,2.3718,2.378,2.3826,2.3876,2.3918,2.3964,2.4021,2.4095,2.4122,2.4191,2.4256,2.4355,2.4397,2.4453,2.4455,2.4469,2.4473,2.4476,2.4474,2.4405,2.4467,2.4467,2.4467,2.4467,2.4467,0,2.3658,2.37,2.3756,2.3831,2.3879,2.3897,2.3959,2.3999,2.4059,2.4116,2.4171,2.425,2.4316,2.4377,2.4447,2.448,2.4493,2.4497,2.4495,2.4504,2.4469,2.4453,2.4485,2.4485,2.4485,2.4485,2.4485,2.4485,2.3684,2.3749,2.378,2.3869,2.3912,2.3979,2.4013,2.406,2.4106,2.4192,2.4246,2.4285,2.4345,2.442,2.4482,2.4499,2.4523,2.4524,2.4543,2.4509,2.4506,2.4504,2.4489,2.4529,2.4529,2.4573,2.4574,2.4574]},{"header":{"parameterUnit":"m.s-1","parameterCategory":1,"la1":30.2991,"la2":30.254,"lo1":-89.0895,"lo2":-89.0444,"dy":0.0017,"dx":0.0017,"nx":28,"ny":28,"refTime":"2023-08-06T09:00:00:Z","depth":0,"parameterNumber":3,"parameterNumberName":"V-component_of_WINDS"},"data":[0,0,0,0,0,0,0,0,0,0,0,0,0,0,0,0,0,0,0,0,0,0,0,0,0,0,0,0,0,0,0,0,0,0,0,0,0,0,0,0,0,0,0,0,0,0,0,0,0,0,0,0,0,0,0,0,0,0,4.2216,4.2217,0,4.2295,4.2296,4.2297,4.2318,4.2317,4.2317,4.2316,4.2389,4.2391,4.2394,0,0,0,0,0,0,0,0,0,0,0,0,0,4.2074,4.2076,4.2216,4.2217,4.2218,4.2295,4.2296,4.2297,4.2318,4.2317,4.2317,4.2316,4.2388,4.2391,4.2394,0,0,0,0,0,0,0,0,0,0,0,0,0,4.2142,4.2077,4.2216,4.2238,4.2241,4.2295,4.2296,4.2297,4.2318,4.2317,4.2316,4.2316,4.2387,4.2391,4.2394,4.243,0,0,4.2405,4.2407,0,0,0,0,0,0,0,0,4.2138,4.2147,4.2233,4.2236,4.224,4.2296,4.2273,4.2341,4.2318,4.2288,4.2316,4.2315,4.2358,4.2364,4.238,4.2433,4.2436,4.2406,4.2408,4.2409,4.241,0,0,0,0,0,0,0,4.2134,4.2144,4.2247,4.2235,4.2238,4.2241,4.225,4.2286,4.2326,4.2291,4.2292,4.2302,4.236,4.2377,4.2382,4.2437,4.2405,4.2409,4.2411,4.2412,4.2521,4.2521,0,0,0,0,0,0,4.2126,4.214,4.2244,4.2249,4.2186,4.2244,4.2254,4.2278,4.2325,4.2332,4.2302,4.2303,4.2371,4.2378,4.2385,4.2428,4.2409,4.2413,4.2415,4.252,4.2521,4.2522,0,0,0,0,0,0,4.2123,4.2135,4.2241,4.2195,4.2209,4.2247,4.2274,4.228,4.2297,4.2335,4.2341,4.2313,4.2371,4.238,4.2418,4.2431,4.2414,4.2417,4.2519,4.252,4.2521,4.2515,0,0,0,0,0,0,4.2119,4.2134,4.215,4.2196,4.2211,4.2276,4.2275,4.2282,4.2304,4.2305,4.2346,4.2352,4.2371,4.2413,4.2422,4.2435,4.242,4.2518,4.252,4.2521,4.2514,4.2516,4.2517,0,0,0,0,0,4.2114,4.2144,4.2151,4.2164,4.2233,4.2277,4.2286,4.2309,4.2305,4.232,4.2344,4.2351,4.2428,4.2417,4.2427,4.2441,4.2517,4.2519,4.2521,4.2514,4.2516,4.2517,0,0,0,0,0,0,4.2097,4.215,4.2159,4.2205,4.2237,4.2281,4.23,4.2311,4.2342,4.2341,4.2366,4.2375,4.2411,4.243,4.2417,4.2477,4.2472,4.2476,4.2463,4.2466,4.2467,4.2461,4.2423,0,0,0,0,0,4.2099,4.2134,4.2177,4.2214,4.223,4.2262,4.2282,4.2298,4.233,4.2343,4.2369,4.2398,4.2429,4.2448,4.2478,4.2517,4.2525,4.2532,4.2533,4.2534,4.2537,4.2556,4.2559,4.2527,4.2527,4.2527,0,0,4.2103,4.2136,4.2156,4.2211,4.2238,4.227,4.2273,4.2307,4.233,4.2347,4.2386,4.2406,4.2439,4.2478,4.2496,4.2495,4.2547,4.2536,4.2537,4.2539,4.2558,4.2561,4.2564,4.2528,4.2528,4.2528,0,0,4.2126,4.2156,4.2189,4.2216,4.2256,4.2277,4.2285,4.2328,4.2342,4.2382,4.2395,4.2421,4.2474,4.2497,4.2515,4.2546,4.2552,4.2554,4.2561,4.258,4.2583,4.2585,4.2594,4.2597,4.2557,4.2557,4.2557,0,4.2125,4.2177,4.2204,4.2238,4.226,4.2279,4.2311,4.2334,4.2381,4.2395,4.2393,4.2459,4.2483,4.2526,4.2534,4.2549,4.2556,4.255,4.2581,4.2583,4.2586,4.2595,4.2598,4.2557,4.2557,4.2557,4.2557,0,4.2172,4.2208,4.2229,4.2277,4.2302,4.2334,4.2363,4.2384,4.2397,4.2417,4.2456,4.2485,4.2521,4.2532,4.2544,4.2576,4.2574,4.2576,4.2572,4.2588,4.2597,4.2601,4.2557,4.2557,4.2557,4.2557,0,0,4.2187,4.225,4.2257,4.2278,4.2323,4.235,4.2381,4.2419,4.2436,4.2467,4.2492,4.2536,4.2538,4.2559,4.2573,4.259,4.261,4.259,4.2591,4.2591,4.2645,4.2642,4.2646,4.2615,4.2615,4.2616,4.2641,0,4.2215,4.2277,4.2301,4.2349,4.238,4.2398,4.2425,4.2454,4.2473,4.2501,4.2521,4.2551,4.2552,4.2565,4.2582,4.2604,4.262,4.2602,4.2636,4.2637,4.2626,4.2651,4.2649,4.2671,4.2645,4.2646,4.2646,0,4.2256,4.229,4.2342,4.2383,4.2397,4.2421,4.2456,4.2483,4.2515,4.2528,4.2551,4.2564,4.2595,4.2589,4.263,4.2617,4.2632,4.2644,4.2646,4.2649,4.2642,4.2653,4.2679,4.2682,4.2652,4.2651,4.2651,0,4.226,4.2318,4.2357,4.2374,4.2423,4.2439,4.2459,4.2491,4.2512,4.2541,4.2554,4.2586,4.2603,4.2626,4.2646,4.2641,4.2685,4.2681,4.2694,4.2693,4.2702,4.2701,4.2729,4.2713,4.2713,4.2713,4.2713,0,4.2288,4.2319,4.2359,4.2383,4.2416,4.2443,4.2474,4.2495,4.2523,4.2548,4.2564,4.2587,4.2613,4.2638,4.2654,4.2684,4.2692,4.2701,4.2705,4.2699,4.2698,4.2709,4.2707,4.2714,4.2714,4.2713,4.2713,0,4.2298,4.2327,4.2369,4.2412,4.2423,4.2446,4.2481,4.2503,4.2523,4.2554,4.2563,4.2594,4.2624,4.2647,4.2686,4.2696,4.2728,4.2732,4.2718,4.272,4.2731,4.2729,4.2766,4.2772,4.2753,4.2753,4.2753,0,4.2314,4.2338,4.2383,4.2403,4.2424,4.2455,4.2476,4.2502,4.2523,4.2561,4.2577,4.2609,4.2636,4.2683,4.2707,4.2736,4.274,4.2751,4.2745,4.2738,4.2739,4.2737,4.2739,4.2752,4.2752,4.2752,4.2752,0,4.2337,4.235,4.2382,4.2419,4.2444,4.2473,4.2502,4.2516,4.2547,4.2569,4.2602,4.2623,4.2663,4.2694,4.2725,4.2743,4.2751,4.2754,4.2758,4.2753,4.2743,4.2747,4.2719,4.2753,4.2753,4.2753,4.2753,4.2753,4.235,4.2372,4.2407,4.2441,4.2466,4.2493,4.2515,4.2539,4.2568,4.2604,4.2617,4.265,4.2678,4.2722,4.274,4.2764,4.2764,4.277,4.2772,4.2773,4.2772,4.274,4.277,4.277,4.277,4.277,4.277,0,4.2373,4.2397,4.2429,4.247,4.2496,4.2505,4.2537,4.2557,4.2587,4.2615,4.2642,4.2678,4.2707,4.2734,4.2764,4.2778,4.2782,4.2785,4.2783,4.2787,4.2771,4.2764,4.278,4.278,4.278,4.278,4.278,4.278,4.2389,4.2426,4.2443,4.2491,4.2514,4.2549,4.2566,4.2589,4.2612,4.2653,4.2678,4.2696,4.2722,4.2754,4.278,4.2787,4.2797,4.2798,4.2805,4.2789,4.2788,4.2787,4.278,4.28,4.28,4.2819,4.2819,4.2819]}]]